Resurs 1-4 Rocket - Orbit

View from above orbital plane
View from above orbital plane
View from above satellite
View from above satellite

Ground track
Ground track

The orbit data is extracted from the following two-line orbital elements,

1 25400U 98043G   13137.10888503  .00000057  00000-0  41521-4 0  3750
2 25400 098.2915 129.8282 0009474 359.5877 000.5294 14.25187528772523
Epoch (UTC): 17 May 2013 02:36:47
Eccentricity: 0.0009474
inclination: 98.2915°
perigee height: 801 km
apogee height: 814 km
right ascension of ascending node: 129.8282°
argument of perigee: 359.5877°
revolutions per day: 14.25187528
mean anomaly at epoch: 0.5294°
orbit number at epoch: 77252

The dashed part of the orbit path shows where the satellite is in the earth's shadow,  

Developed and maintained by Chris Peat, Heavens-Above GmbH. Please read the updated FAQ before sending e-mail. Imprint. DLR